Details From KPNS - Pensacola Rgnl
To MZBZ - Philip S W Goldson Intl
Flight Number -
Tags decoded
Created
Modified
Stats Distance 848 nm / 1,571 km
Max Altitude 0 ft / 0 m
Waypoints 8
Social Downloads 0
Likes 0
Share VATSIM

Download

Looking for another format? Having issues loading an existing format? Contact us
Advertisement - Login to hide

Notes

Requested: KPNS HOOCK L333 PISAD UM215 NUDIS UL214 CUN B881 LIDEK UB881 CZM B764 DAXUM UB764 ANEPU B764 TAMDA MZBZ Unmatched points: L333 UM215 UL214 B881 LIDEK UB881 B764 DAXUM UB764 ANEPU B764

Route

KPNS HOOCK PISAD NUDIS CUN CZM TAMDA MZBZ

ID Type Via Altitude Latitude Longitude Leg Dist Tot Dist Heading (true) Name
O KPNS APT - 0 ft / 0 m 30.47343˚ -87.18661˚ - 0 nm - Pensacola Rgnl
HOOCK FIX - 0 ft / 0 m 28.22906˚ -88.66727˚ 155 nm 155 nm 210° / 210° -
PISAD FIX - 0 ft / 0 m 24.28861˚ -87.14028˚ 250 nm 406 nm 160° / 161° -
NUDIS FIX - 0 ft / 0 m 23.44444˚ -87.78889˚ 61 nm 467 nm 215° / 215° -
CUN VOR - 0 ft / 0 m 21.02511˚ -86.85872˚ 154 nm 622 nm 160° / 161° CANCUN VOR-DME
CZM NDB - 0 ft / 0 m 20.52195˚ -86.93393˚ 30 nm 652 nm 188° / 188° COZUMEL NDB
TAMDA FIX - 0 ft / 0 m 17.92000˚ -88.14000˚ 170 nm 823 nm 204° / 203° -
O MZBZ APT - 0 ft / 0 m 17.53914˚ -88.30820˚ 24 nm 848 nm 203° / 203° Philip S W Goldson Intl

Altitude Profile

Weather

Temperature
Clouds and Precipitation
Forecast for 2017-02-24 06:00 UTC. Updated 4 minutes ago
Winds

KPNS

Details ICAO KPNS (PNS)
Name Pensacola Rgnl
Region United States
Timezone America/Chicago (UTC-6.0)
Stats Elevation 121 ft / 37 m (AMSL)
Location 30.473426° -87.186612°
Runways 2
Magnetic Variation 2.734° W

METAR

KPNS 240053Z 23006KT 10SM CLR 19/17 A2981

Decode

TAF

TAF KPNS 232327Z 2400/2424 19005KT P6SM SKC FM240500 VRB03KT 5SM BR SKC FM240900 VRB03KT 3SM BR SCT007 TEMPO 2409/2413 1/2SM FG VV002 FM241400 14007KT P6SM FEW250

Decode

Departure Runways

ID Width Length Bearing (true) Bearing (mag) Surface Threshold Offset Overrun Length
08 150 ft / 46 m 6,991 ft / 2,131 m 78.00° 80.73° Asphalt 0 ft / 0 m 0 ft / 0 m
17 150 ft / 46 m 7,025 ft / 2,141 m 167.05° 169.78° Asphalt 0 ft / 0 m 0 ft / 0 m
26 150 ft / 46 m 6,991 ft / 2,131 m 258.01° 260.74° Asphalt 0 ft / 0 m 0 ft / 0 m
35 150 ft / 46 m 7,025 ft / 2,141 m 347.05° 349.78° Asphalt 0 ft / 0 m 0 ft / 0 m

MZBZ

Details ICAO MZBZ (BZE)
Name Philip S W Goldson Intl
Region Belize
Timezone America/Belize (UTC-6.0)
Stats Elevation 15 ft / 5 m (AMSL)
Location 17.539144° -88.308201°
Runways 1
Magnetic Variation 0.448° W

METAR

MZBZ 240000Z 17005KT CAVOK 26/15 A2974 Q1007 NOSIG RMK-FU-N/NE

Decode

TAF

Not found

Destination Runways

ID Width Length Bearing (true) Bearing (mag) Surface Threshold Offset Overrun Length
07 150 ft / 46 m 7,097 ft / 2,163 m 76.65° 77.10° Asphalt 0 ft / 0 m 200 ft / 61 m
25 150 ft / 46 m 7,097 ft / 2,163 m 256.66° 257.11° Asphalt 0 ft / 0 m 200 ft / 61 m

Popular Alternatives